Location: Newark
(48.5656°N, 1.8592°W)
Time: 18:33:24
(UTC+00:00)

N. Korean satellite - Visible Passes

Search period start: 15 November 2019 00:00
Search period end: 25 November 2019 00:00
Orbit: 456 x 506 km, 97.2° (Epoch: 14 November)

Date Brightness Start Highest point End Pass type
(mag) Time Alt. Az. Time Alt. Az. Time Alt. Az.
15 Nov 6.6 06:16:34 10° N 06:20:19 78° WNW 06:24:00 10° SSW visible
15 Nov 10.4 18:32:06 10° W 18:32:46 10° W 18:33:26 10° WNW visible
16 Nov 7.5 05:51:15 10° NNE 05:54:55 52° E 05:58:32 10° S visible
16 Nov 9.6 18:04:26 10° SW 18:07:07 19° W 18:09:52 10° NW visible
17 Nov 8.9 05:26:12 10° NE 05:29:26 27° E 05:32:36 10° SSE visible
17 Nov 8.4 17:38:12 10° SSW 17:41:34 36° W 17:45:02 10° NNW visible
18 Nov 9.9 05:01:39 10° NE 05:03:50 15° E 05:06:00 10° SE visible
18 Nov 6.9 06:33:54 10° N 06:37:30 48° WNW 06:41:03 10° SSW visible
18 Nov 6.9 17:12:30 10° S 17:16:07 74° WSW 17:19:50 10° NNW visible
19 Nov 6.7 06:08:25 10° NNE 06:12:10 85° ESE 06:15:51 10° SSW visible
19 Nov 10.1 18:22:46 10° WSW 18:24:31 13° W 18:26:16 10° WNW visible
20 Nov 8.0 05:43:10 10° NNE 05:46:44 42° E 05:50:13 10° S visible
20 Nov 9.3 17:55:53 10° SSW 17:58:53 24° W 18:01:57 10° NW visible
21 Nov 9.3 05:18:13 10° NE 05:21:12 22° E 05:24:07 10° SSE visible
21 Nov 7.9 17:29:50 10° S 17:33:22 45° W 17:36:58 10° NNW visible
22 Nov 10.1 04:54:03 10° ENE 04:55:33 12° E 04:57:04 10° ESE visible
22 Nov 6.6 06:25:41 10° N 06:29:20 59° WNW 06:32:56 10° SSW visible
22 Nov 6.6 17:04:15 10° SSE 17:07:55 89° E 17:11:40 10° NNW visible
23 Nov 7.0 06:00:16 10° NNE 06:03:58 69° ESE 06:07:35 10° S visible
23 Nov 9.9 18:13:54 10° SW 18:16:13 16° W 18:18:33 10° NW visible
24 Nov 8.4 05:35:05 10° NNE 05:38:29 34° E 05:41:49 10° SSE visible
24 Nov 8.9 17:47:22 10° SSW 17:50:37 29° W 17:53:55 10° NNW visible
